Temp
13 14 14 14 14 15 15 15 15 15 15 15 16 16 16 16 16 17 17 17 17 17 17 17 17 17 17 16 14 15 15 16 16 17 17 16 16 14 11 12 12 11 11 11 11 11 11
13 13 13 14 14 14 14 15 15 15 15 15 16 16 16 17 17 17 17 17 17 17 17 17 17 17 16 14 15 15 16 16 16 16 16 16 15 15 13 12 11 11 11 11 11 11 11
12 13 13 13 14 14 14 14 15 15 15 16 16 17 17 17 17 17 17 17 17 17 17 17 17 17 17 15 15 15 16 16 16 16 16 15 15 15 13 12 12 11 12 10 10 10 10
12 12 13 13 14 14 14 14 14 15 16 16 16 16 17 17 17 17 17 17 17 17 17 17 17 17 16 15 15 16 16 16 16 16 16 15 15 15 13 12 11 9 9 10 11 10 10
12 12 13 13 13 14 14 14 14 15 15 16 17 17 17 17 17 17 17 17 17 17 17 17 17 17 16 16 16 16 16 16 16 16 15 15 15 13 12 10 10 8 10 9 9 10 9
12 12 12 13 13 14 14 14 14 15 15 16 16 17 17 17 17 17 17 17 17 17 17 17 17 17 16 15 15 15 16 16 16 16 16 16 14 9 7 9 11 10 9 9 8 10 9
12 12 12 13 13 13 14 14 14 15 15 16 16 16 17 17 17 17 17 17 17 17 17 15 15 15 15 15 15 15 16 16 15 15 10 11 9 10 10 9 10 9 8 8 7 8 9
12 12 12 12 12 13 13 14 15 15 15 16 16 17 17 17 17 17 17 17 17 16 15 15 15 15 15 15 15 15 15 15 14 11 10 10 11 11 10 9 10 9 9 8 8 8 9
11 12 12 12 12 13 13 14 14 15 15 16 16 17 17 17 17 16 17 16 16 16 15 15 15 15 14 14 14 14 14 14 12 11 10 11 12 11 10 10 10 9 9 9 9 7 6
11 11 11 12 12 12 13 13 14 15 15 15 16 16 17 17 16 16 16 15 16 16 11 14 14 14 14 14 14 14 14 13 12 12 11 11 11 11 11 11 9 9 9 8 7 7 9
11 11 11 12 12 12 13 13 14 15 15 15 16 16 17 17 16 16 15 15 16 15 12 14 14 14 14 14 13 14 13 13 12 11 11 13 11 11 11 11 9 10 8 7 7 7 6
10 11 11 11 12 12 12 13 13 14 15 15 16 16 16 16 16 15 15 16 15 11 11 14 13 12 13 13 13 13 13 13 12 11 10 10 10 10 11 10 9 8 8 6 5 6 8
10 11 11 11 12 12 12 13 13 14 15 15 16 16 16 16 15 16 16 15 11 12 13 14 13 11 11 12 12 10 10 9 11 13 10 9 10 10 10 10 9 7 7 9 10 8 10
10 11 11 11 11 12 12 12 13 13 15 15 16 16 15 15 15 15 16 12 16 14 13 11 11 11 12 11 11 10 11 10 8 8 7 9 11 10 9 10 10 7 8 8 10 8 8
10 10 11 11 11 12 12 12 13 13 14 15 16 16 15 14 15 15 15 11 13 12 12 12 12 12 13 11 11 11 10 9 9 8 12 9 11 9 9 9 9 8 8 7 7 5 5
10 10 10 11 11 11 12 12 13 13 14 14 16 15 14 14 14 14 11 11 12 11 11 11 13 12 13 12 12 11 11 10 10 8 9 9 9 9 8 8 7 8 6 7 5 8 8
10 10 10 11 11 11 12 12 12 13 13 14 15 15 14 14 14 14 11 9 11 11 11 11 12 11 10 12 11 10 11 10 9 8 8 7 8 9 8 7 7 6 6 6 6 5 7
9 9 10 10 10 11 11 11 12 12 13 14 14 12 14 13 12 7 9 10 11 11 11 10 10 9 9 9 10 8 9 9 10 9 8 7 5 6 8 7 6 7 7 7 8 7 5
9 9 9 9 10 11 11 11 11 11 12 12 12 13 13 12 10 8 9 10 11 10 10 9 9 8 9 9 10 8 9 10 10 8 7 6 6 7 9 7 5 6 5 6 7 7 6
8 8 8 9 9 9 10 10 10 10 11 11 12 8 12 11 10 9 10 10 10 10 10 10 9 9 8 8 7 9 9 10 9 9 9 9 5 8 10 11 8 6 6 6 8 5 8
8 8 8 8 9 9 8 9 9 9 9 10 11 9 8 7 8 8 9 9 10 11 9 9 9 7 8 8 8 7 8 8 8 9 8 8 5 5 7 8 8 8 8 8 7 7 6
8 8 8 8 8 8 8 8 8 8 8 8 10 10 8 8 8 7 7 8 8 9 9 8 8 9 6 8 10 10 9 8 9 6 6 4 5 4 6 6 6 6 6 7 7 8 8
7 8 7 7 8 8 7 7 8 8 7 7 8 8 8 8 6 6 6 8 8 9 11 10 8 9 7 8 10 11 10 9 9 8 6 3 4 4 7 6 5 7 8 7 5 5 7
6 7 7 7 7 7 7 7 7 7 7 7 7 7 7 6 5 7 8 7 8 9 8 10 9 8 10 10 10 9 8 8 7 7 9 4 4 4 6 5 8 10 8 8 7 7 5
5 6 6 6 7 7 7 7 7 7 7 7 7 6 6 6 7 6 6 7 8 8 7 8 9 9 9 9 8 7 7 7 6 4 4 7 7 5 6 7 8 8 4 5 6 6 1
5 5 5 5 6 6 6 6 7 7 7 7 7 6 5 5 6 8 7 7 7 6 6 7 8 8 8 7 7 7 7 7 7 6 2 2 5 5 5 6 7 7 4 4 3 6 0
4 4 4 5 5 5 6 6 6 6 6 6 6 7 5 5 6 7 6 7 7 6 5 7 7 7 7 6 7 6 6 7 7 6 5 4 3 5 5 6 6 2 2 3 5 3 -2
2 3 3 4 5 5 5 5 5 6 6 6 6 6 6 5 6 6 7 6 6 6 6 7 6 6 5 5 6 6 6 6 5 6 6 6 5 3 3 5 5 -3 1 3 -4 -3 -5
0 1 2 3 4 4 4 5 5 5 5 4 4 5 6 5 5 6 6 6 6 6 6 5 6 6 5 5 4 4 4 3 4 6 3 6 6 6 5 2 -4 -6 -6 -7 -7 -7 -8
Height
1574 1572 1569 1565 1561 1558 1556 1554 1551 1549 1546 1544 1541 1540 1539 1539 1539 1538 1538 1539 1539 1539 1540 1540 1539 1538 1538 1538 1540 1537 1535 1533 1532 1531 1528 1527 1527 1529 1534 1536 1537 1538 1540 1540 1539 1540 1540
1577 1574 1571 1567 1563 1560 1558 1556 1553 1551 1548 1546 1543 1542 1541 1541 1540 1540 1540 1540 1540 1541 1541 1540 1540 1539 1538 1540 1540 1537 1536 1535 1533 1532 1530 1529 1529 1530 1533 1537 1538 1540 1539 1539 1539 1539 1539
1578 1576 1573 1569 1565 1563 1560 1558 1555 1552 1550 1548 1546 1544 1543 1542 1541 1541 1541 1542 1542 1542 1541 1541 1540 1540 1540 1543 1540 1538 1537 1535 1534 1533 1532 1531 1531 1531 1534 1538 1540 1540 1540 1539 1539 1539 1539
1580 1578 1575 1571 1568 1565 1562 1560 1557 1554 1552 1549 1548 1546 1544 1544 1543 1542 1542 1542 1542 1542 1541 1541 1540 1540 1541 1541 1540 1539 1537 1536 1535 1534 1533 1532 1532 1532 1535 1538 1540 1543 1545 1547 1539 1539 1539
1582 1579 1577 1574 1571 1568 1565 1562 1559 1556 1554 1551 1549 1547 1546 1544 1544 1543 1543 1543 1543 1542 1541 1541 1541 1540 1542 1542 1540 1538 1537 1536 1535 1535 1534 1533 1533 1535 1538 1541 1546 1550 1551 1551 1544 1538 1538
1583 1581 1578 1576 1573 1569 1566 1563 1561 1558 1555 1552 1550 1547 1546 1545 1544 1544 1543 1543 1542 1541 1541 1541 1541 1543 1542 1543 1541 1539 1537 1536 1536 1535 1535 1534 1534 1540 1545 1546 1554 1553 1554 1552 1551 1539 1538
1584 1582 1580 1577 1574 1571 1568 1564 1562 1560 1557 1554 1551 1549 1547 1546 1545 1544 1543 1543 1545 1544 1541 1543 1543 1542 1542 1542 1541 1539 1537 1537 1536 1536 1540 1538 1545 1550 1549 1549 1550 1551 1554 1554 1546 1539 1538
1584 1583 1581 1578 1576 1572 1569 1566 1563 1560 1557 1555 1552 1550 1547 1545 1544 1543 1542 1542 1542 1544 1544 1543 1543 1543 1543 1542 1541 1540 1538 1538 1537 1542 1541 1544 1548 1546 1547 1548 1549 1551 1552 1551 1543 1539 1539
1585 1583 1581 1579 1577 1574 1571 1567 1564 1561 1557 1555 1552 1550 1548 1545 1544 1543 1541 1541 1541 1542 1543 1544 1544 1543 1544 1544 1542 1541 1540 1539 1540 1543 1544 1546 1546 1545 1546 1547 1549 1549 1549 1547 1548 1542 1539
1584 1583 1582 1580 1577 1574 1572 1569 1565 1562 1558 1555 1552 1550 1547 1545 1545 1542 1541 1541 1541 1541 1551 1547 1545 1545 1544 1542 1543 1542 1540 1542 1541 1544 1544 1545 1544 1545 1545 1546 1549 1550 1545 1546 1547 1546 1541
1585 1583 1582 1580 1577 1575 1572 1569 1566 1563 1559 1556 1553 1550 1547 1545 1544 1543 1543 1542 1542 1542 1576 1548 1545 1545 1543 1544 1544 1542 1540 1539 1541 1543 1545 1543 1544 1544 1545 1544 1546 1545 1544 1545 1545 1547 1549
1585 1584 1582 1580 1578 1576 1573 1570 1567 1563 1560 1556 1553 1551 1548 1547 1545 1544 1543 1543 1544 1557 1574 1548 1545 1544 1543 1542 1542 1541 1540 1541 1541 1542 1544 1544 1544 1543 1542 1543 1544 1542 1542 1545 1550 1550 1545
1584 1583 1581 1580 1578 1575 1573 1570 1568 1565 1561 1557 1554 1551 1549 1547 1547 1545 1544 1544 1558 1566 1550 1548 1547 1546 1547 1546 1543 1542 1544 1545 1546 1544 1551 1547 1543 1543 1543 1543 1544 1545 1546 1546 1543 1545 1534
1582 1582 1580 1579 1577 1575 1572 1570 1567 1564 1561 1557 1553 1550 1548 1548 1547 1546 1546 1546 1554 1550 1550 1548 1548 1547 1548 1548 1546 1545 1545 1547 1547 1548 1557 1555 1550 1543 1543 1543 1546 1550 1550 1555 1551 1550 1542
1580 1580 1579 1578 1576 1574 1572 1569 1566 1563 1560 1557 1553 1550 1548 1547 1546 1546 1547 1560 1554 1551 1548 1548 1548 1548 1547 1547 1548 1546 1546 1547 1544 1545 1546 1554 1546 1543 1543 1543 1544 1549 1551 1552 1553 1561 1560
1577 1577 1576 1576 1575 1573 1570 1568 1565 1563 1560 1556 1552 1548 1547 1547 1546 1546 1548 1554 1549 1546 1547 1548 1548 1547 1548 1547 1547 1547 1545 1542 1542 1543 1544 1547 1551 1542 1543 1544 1546 1546 1550 1553 1560 1549 1543
1574 1574 1574 1573 1572 1571 1569 1567 1564 1561 1559 1556 1552 1549 1548 1547 1546 1546 1553 1553 1547 1545 1547 1548 1548 1548 1549 1546 1547 1548 1543 1540 1539 1543 1543 1547 1550 1544 1544 1543 1542 1550 1551 1554 1555 1556 1543
1571 1571 1570 1570 1570 1569 1568 1565 1563 1560 1557 1555 1551 1551 1547 1547 1548 1550 1552 1549 1547 1544 1545 1546 1546 1546 1546 1545 1546 1548 1543 1537 1534 1536 1543 1543 1551 1551 1537 1535 1536 1538 1539 1541 1541 1540 1547
1568 1568 1568 1567 1566 1566 1566 1564 1562 1560 1557 1554 1552 1549 1547 1546 1551 1552 1548 1547 1545 1544 1543 1544 1543 1543 1543 1544 1545 1541 1538 1532 1532 1534 1538 1541 1547 1548 1533 1535 1538 1537 1536 1531 1530 1532 1527
1565 1564 1564 1564 1563 1563 1563 1561 1560 1559 1559 1558 1554 1552 1547 1546 1546 1547 1549 1547 1544 1541 1541 1541 1540 1540 1542 1542 1541 1538 1536 1531 1532 1533 1532 1533 1541 1534 1528 1517 1522 1531 1530 1527 1524 1531 1508
1561 1560 1560 1560 1560 1560 1559 1559 1557 1556 1557 1558 1556 1553 1551 1551 1547 1547 1546 1544 1545 1543 1540 1538 1537 1537 1537 1540 1538 1539 1535 1532 1531 1531 1534 1534 1540 1536 1523 1520 1519 1514 1515 1512 1517 1506 1512
1555 1555 1555 1555 1554 1555 1555 1555 1554 1553 1553 1554 1554 1551 1550 1548 1545 1547 1546 1543 1539 1536 1537 1536 1536 1530 1533 1535 1528 1529 1530 1533 1531 1532 1532 1536 1533 1532 1516 1516 1515 1508 1506 1500 1495 1489 1492
1549 1549 1550 1550 1550 1550 1551 1551 1551 1551 1550 1550 1549 1548 1547 1545 1544 1545 1541 1537 1534 1533 1530 1529 1530 1531 1531 1526 1522 1520 1520 1522 1521 1522 1525 1532 1532 1529 1508 1509 1513 1501 1482 1484 1488 1486 1481
1544 1545 1545 1545 1544 1545 1546 1547 1547 1547 1546 1546 1547 1546 1546 1541 1541 1539 1534 1535 1533 1532 1533 1529 1528 1528 1523 1521 1520 1518 1516 1512 1512 1508 1512 1521 1525 1524 1512 1512 1500 1470 1474 1474 1476 1470 1475
1539 1539 1539 1539 1539 1539 1540 1541 1541 1541 1541 1539 1540 1541 1540 1536 1535 1534 1533 1532 1529 1528 1528 1525 1522 1520 1519 1519 1519 1518 1513 1509 1501 1500 1503 1505 1508 1511 1505 1496 1480 1469 1478 1479 1479 1475 1481
1534 1533 1533 1533 1533 1533 1533 1534 1534 1535 1535 1534 1534 1533 1533 1532 1529 1528 1528 1526 1527 1526 1523 1519 1517 1516 1517 1516 1517 1515 1509 1507 1502 1500 1504 1504 1504 1506 1500 1496 1486 1475 1479 1479 1479 1469 1480
1528 1527 1527 1527 1527 1527 1526 1526 1527 1528 1528 1526 1525 1528 1527 1524 1522 1524 1524 1522 1522 1522 1520 1517 1514 1512 1513 1513 1510 1510 1505 1501 1497 1498 1497 1504 1506 1500 1496 1489 1481 1485 1482 1481 1478 1482 1485
1522 1522 1521 1519 1519 1519 1520 1520 1519 1521 1522 1521 1517 1520 1520 1517 1514 1516 1517 1517 1517 1517 1516 1513 1514 1509 1510 1509 1505 1502 1498 1495 1498 1493 1491 1492 1495 1500 1495 1485 1479 1494 1486 1486 1500 1493 1489
1517 1516 1515 1513 1512 1512 1512 1512 1513 1514 1515 1515 1512 1512 1515 1511 1508 1508 1508 1510 1511 1510 1511 1507 1506 1506 1504 1505 1505 1504 1502 1501 1496 1489 1491 1488 1486 1484 1489 1492 1505 1504 1504 1504 1501 1498 1492
Wind_Speed
15 18 20 21 20 19 18 17 17 17 16 16 13 11 10 9 8 9 9 8 8 8 6 5 5 4 3 5 8 11 10 10 9 11 9 10 11 5 4 3 3 4 1 1 1 1 2
15 18 21 22 21 20 19 18 18 18 18 16 14 11 9 8 7 8 8 8 8 6 7 13 13 13 5 6 11 11 8 8 8 12 15 12 7 10 8 4 4 1 1 1 1 2 3
15 18 22 24 22 21 19 19 19 19 18 17 14 11 9 6 5 6 6 6 6 5 5 1 5 3 14 10 12 10 7 8 8 10 12 12 10 3 5 3 2 1 2 3 2 1 2
14 18 21 24 24 21 20 19 20 20 19 17 14 12 9 6 5 5 5 5 4 3 2 1 2 3 5 11 13 6 6 7 7 7 7 7 8 10 5 3 4 4 4 4 1 1 1
14 17 20 23 24 22 20 20 19 19 19 17 14 11 9 5 3 4 3 2 4 2 3 4 2 2 3 5 14 11 6 5 3 5 8 5 3 6 4 3 4 6 2 3 8 1 1
12 16 19 21 24 24 22 20 20 20 19 18 15 13 7 6 2 1 2 4 6 9 2 2 3 3 4 6 9 12 3 5 3 1 1 4 5 4 4 5 1 3 4 4 5 3 1
10 15 19 21 24 23 24 22 20 20 20 20 17 14 9 5 6 3 3 3 3 1 9 7 5 3 4 5 3 12 5 1 3 6 4 6 6 2 1 1 1 2 3 5 5 4 5
10 14 17 19 23 24 24 23 21 19 19 19 18 15 13 9 5 6 4 4 1 5 5 5 4 4 4 6 2 12 6 2 5 3 3 5 2 2 1 2 2 3 3 5 5 3 2
9 14 15 17 20 22 24 24 23 21 19 19 18 17 15 14 5 7 3 3 6 2 2 1 2 3 3 4 3 10 9 3 4 3 3 4 2 0 1 0 4 2 3 3 5 6 2
8 11 14 16 18 20 22 24 24 23 21 19 18 17 16 14 5 7 3 5 3 1 4 2 1 3 3 2 1 7 7 3 3 1 2 2 1 1 1 1 3 4 3 2 5 4 3
7 10 13 15 17 19 20 22 24 24 23 20 18 17 15 13 8 6 3 4 1 2 4 1 2 3 3 1 3 3 5 2 3 2 2 2 2 1 1 1 3 7 1 3 1 1 3
7 10 12 15 16 18 20 20 24 24 24 22 19 16 14 12 10 7 5 2 2 6 4 2 2 4 2 3 3 6 2 2 2 3 2 2 1 2 1 1 3 5 2 2 2 1 1
10 10 12 15 17 18 20 20 22 23 24 23 19 16 12 11 8 5 4 3 5 4 2 2 2 4 2 3 4 5 4 5 2 4 5 5 1 1 1 2 1 6 4 4 5 3 4
12 13 14 16 18 19 20 21 21 23 24 23 21 16 11 9 8 4 3 5 1 1 4 0 1 2 2 3 1 5 2 2 1 3 2 2 5 3 1 1 1 3 2 3 5 3 4
14 14 15 17 19 20 21 21 21 23 24 25 21 16 7 6 6 3 1 4 5 4 1 0 1 1 2 1 1 3 1 3 5 5 2 2 4 1 1 2 2 2 2 2 1 1 2
16 16 17 17 18 20 20 21 20 22 23 25 25 15 4 5 7 3 4 4 3 2 3 1 3 2 3 2 2 2 1 3 3 4 2 4 4 2 1 2 4 2 5 2 1 4 6
17 17 17 17 17 17 19 20 21 22 22 22 19 7 4 7 9 1 2 6 4 4 4 2 3 3 5 2 3 3 4 3 5 4 2 4 2 3 1 6 8 2 1 2 1 4 4
15 16 17 16 14 18 21 20 21 22 21 18 9 5 8 8 2 2 1 2 3 2 4 4 3 6 6 5 4 5 6 6 11 11 6 5 4 4 10 1 2 3 7 6 3 5 4
15 16 16 17 16 16 19 19 19 18 18 20 13 5 5 3 0 2 3 3 4 3 4 4 4 6 2 4 3 6 4 2 13 9 7 6 2 4 7 1 3 5 5 6 1 3 10
15 15 16 17 16 17 17 15 14 16 18 19 8 3 3 1 3 4 1 4 4 3 4 4 3 3 3 4 5 3 3 2 7 8 6 11 4 7 10 13 3 4 6 7 10 4 10
20 20 20 20 21 21 20 19 17 16 17 15 3 3 2 4 3 2 4 3 3 4 5 6 3 7 8 5 3 5 3 4 3 5 4 2 5 6 14 17 16 20 19 17 14 23 11
22 23 23 22 20 19 17 18 17 17 14 12 5 4 3 5 6 2 4 5 8 5 6 5 6 1 8 7 7 4 2 2 5 1 7 2 4 2 12 13 15 20 16 19 23 26 21
18 17 18 20 20 18 16 16 14 14 13 7 8 10 5 4 2 3 5 6 4 0 8 7 8 2 4 12 21 21 17 19 15 8 9 8 4 3 10 3 6 11 13 12 5 5 7
19 21 21 20 15 18 20 18 19 17 17 16 14 9 4 4 5 5 3 2 4 4 4 9 8 5 6 8 8 11 15 22 20 23 21 8 5 3 5 1 7 3 1 6 11 8 9
22 22 22 22 21 19 20 18 19 15 17 20 18 14 6 3 10 10 13 10 15 15 7 11 24 23 14 5 2 5 3 4 5 4 7 17 10 4 4 6 8 12 4 3 3 5 7
19 20 21 21 21 21 23 25 23 21 21 23 23 21 13 4 8 23 6 10 5 5 5 9 11 10 7 5 3 4 4 3 4 5 3 2 7 4 3 4 5 0 2 3 4 7 10
21 21 21 22 22 22 22 22 23 25 22 21 27 23 22 10 15 17 9 4 5 4 3 11 6 3 8 3 4 5 4 5 5 5 3 3 2 8 8 6 6 6 7 3 4 4 14
20 22 23 23 23 23 24 23 23 23 25 21 26 28 25 10 21 21 21 18 15 10 5 3 5 5 2 4 3 4 4 2 1 2 3 2 3 4 2 4 5 24 5 3 10 11 15
17 18 20 21 23 23 24 24 24 24 24 22 23 22 29 29 13 8 19 29 28 23 13 6 4 2 5 2 2 1 3 1 3 4 1 4 3 2 2 2 10 18 15 15 16 10 17
Wind_Direction
37 29 25 26 27 30 36 38 38 37 38 40 52 62 69 78 81 89 95 99 102 101 90 51 20 9 45 52 20 16 19 33 40 39 70 75 69 83 88 72 57 72 148 82 189 236 275
40 32 28 30 31 34 38 39 38 37 37 40 47 57 66 75 81 90 97 102 103 87 97 87 69 58 42 72 21 21 31 36 53 50 63 67 79 93 93 68 70 58 111 343 255 272 276
41 33 31 32 34 34 37 37 36 34 34 36 42 49 56 68 87 100 100 103 96 90 118 3 12 345 45 44 24 23 38 43 52 55 61 59 60 109 108 98 63 44 24 349 350 297 266
41 33 31 32 33 33 33 33 33 31 30 32 34 37 44 61 81 107 109 101 78 49 44 321 352 26 85 40 25 31 33 33 39 42 48 49 66 76 64 106 36 47 51 7 267 355 256
41 34 31 30 30 31 31 30 29 28 28 26 26 29 31 46 77 86 114 66 14 281 65 44 23 112 79 19 14 24 35 38 47 70 45 45 74 71 53 62 26 13 332 333 318 342 308
39 34 33 29 28 28 28 27 25 23 23 22 24 25 28 32 28 279 218 169 15 30 241 264 28 108 36 358 12 12 11 26 27 301 11 48 53 65 33 42 336 314 334 308 253 283 246
36 30 30 29 27 26 26 24 21 19 19 18 17 21 21 11 15 294 207 268 305 94 64 80 61 75 12 358 30 11 18 12 29 53 35 19 61 44 264 177 137 210 227 250 258 275 309
29 28 26 26 25 25 23 22 19 17 16 15 14 12 11 358 339 350 268 245 320 142 83 69 59 47 24 9 5 17 23 52 50 58 345 23 70 222 192 163 239 238 269 279 278 274 254
27 26 24 22 21 20 22 20 18 14 12 12 12 10 5 360 4 2 37 142 137 123 105 51 35 27 13 360 30 6 18 46 76 62 31 135 162 106 171 214 4 283 220 278 263 320 255
21 11 11 12 13 14 16 18 16 14 9 7 7 9 7 8 18 4 57 123 113 50 71 302 354 6 348 1 36 9 15 39 44 132 160 194 151 93 126 281 111 309 195 275 289 358 297
353 357 359 1 3 6 8 12 12 12 8 5 4 6 9 14 11 24 69 130 45 59 12 292 327 334 340 67 323 343 8 54 131 158 115 275 178 134 226 203 158 244 342 253 218 202 359
324 336 344 351 353 357 1 3 5 6 7 4 2 3 6 12 21 39 102 110 0 41 267 357 313 338 348 17 357 327 14 44 92 118 6 264 284 182 208 216 191 305 351 71 59 99 338
303 317 326 338 343 348 350 355 359 0 1 1 1 360 3 11 19 46 88 8 35 126 3 317 324 23 354 316 348 32 21 14 63 13 4 338 242 248 213 12 45 17 18 335 348 3 241
288 303 314 323 331 336 341 346 348 353 356 358 357 353 356 8 18 24 352 48 91 262 236 2 315 307 270 2 326 337 24 359 193 88 94 45 323 174 165 104 191 50 120 145 291 292 285
278 291 303 313 319 327 333 339 343 347 351 355 352 348 346 1 12 7 7 51 218 200 177 249 325 350 301 304 258 1 229 219 211 181 171 143 277 121 74 153 129 155 179 146 208 241 334
273 280 292 304 313 321 327 333 336 343 346 350 352 342 6 0 358 7 73 232 233 200 150 120 204 188 257 270 330 2 257 197 200 185 160 190 295 183 148 113 36 170 156 84 34 299 288
273 278 285 294 305 314 323 328 331 335 339 340 348 339 343 341 336 3 176 230 265 232 201 180 225 245 223 240 206 233 239 249 187 166 105 143 137 280 209 199 180 132 227 77 142 182 225
279 281 284 290 294 314 322 325 331 334 339 342 346 328 314 325 340 41 198 243 308 249 212 244 222 212 206 189 227 235 229 231 184 160 171 199 156 243 233 154 139 178 198 166 171 226 239
281 285 286 290 296 304 313 323 329 336 350 359 339 295 315 337 124 313 292 267 248 209 222 196 241 211 176 222 242 199 221 256 184 169 168 185 203 319 321 50 23 212 206 217 266 44 234
280 286 290 290 295 302 305 312 322 329 335 348 340 341 317 17 150 153 330 285 287 239 248 206 231 158 160 236 223 269 257 275 208 213 189 162 193 198 251 261 141 198 210 216 211 217 262
270 279 285 288 290 290 295 300 303 307 311 325 325 281 256 302 315 228 171 185 253 276 228 219 234 217 182 221 219 225 232 293 207 224 192 168 246 241 251 269 278 274 267 252 222 243 242
271 280 281 282 285 290 292 289 296 302 307 300 259 230 236 257 264 265 224 232 205 242 186 240 220 207 190 211 207 196 234 171 255 94 158 163 254 273 278 242 242 267 266 256 246 252 256
268 273 284 277 275 279 286 289 290 295 293 284 260 255 260 245 202 161 215 231 256 140 250 248 225 212 223 235 237 244 243 238 232 208 199 160 218 203 268 135 323 274 250 232 239 223 219
273 271 268 278 275 273 276 273 275 278 279 269 259 254 222 257 205 212 227 210 272 260 252 288 265 216 261 297 291 266 254 248 241 237 228 184 207 209 283 59 265 265 246 201 211 248 216
276 276 275 274 272 269 274 270 271 264 275 260 258 241 223 247 231 263 259 258 282 282 270 258 274 269 270 247 256 306 280 287 263 200 206 216 228 228 229 220 284 306 25 51 36 315 15
273 272 271 271 270 268 265 263 265 271 260 260 267 254 226 254 216 253 260 253 256 262 280 240 264 264 224 203 181 222 234 246 274 300 47 92 220 206 192 245 246 213 100 106 111 264 3
277 275 274 272 270 268 266 265 259 257 264 257 256 263 234 235 240 247 225 223 210 214 243 278 266 240 202 201 229 213 239 203 225 212 196 167 178 223 242 257 267 14 354 328 254 349 2
284 280 276 273 272 270 267 265 263 260 260 264 260 253 243 241 251 244 254 236 238 243 248 260 308 229 202 219 222 218 231 201 284 256 226 220 212 215 235 233 257 358 314 346 335 340 12
297 294 286 281 276 273 270 267 262 260 261 265 265 270 265 238 245 250 248 252 254 264 254 226 239 208 240 216 245 270 253 236 208 271 40 248 236 285 234 48 49 46 57 27 19 18 14